Regional Weather Roundup
Issued by NWS Goodland, KS

Home | Current Version | Previous Version | Graphics & Text | Print | Product List | Glossary On
Versions: 1 2 3 4 5 6 7 8 9 10 11 12 13 14 15 16 17 18 19 20 21 22 23 24 25 26 27 28 29 30 31 32 33 34 35 36 37 38 39 40 41 42 43 44 45 46 47 48 49 50
000
ASUS43 KGLD 172208
RWRGLD

GOODLAND FORECAST AREA HOURLY WEATHER ROUNDUP
NATIONAL WEATHER SERVICE GOODLAND KS
400 PM MDT WED SEP 17 2014

...OFFICIAL OBSERVATIONS...

CITY           SKY/WX    TMP DP  RH WIND       PRES   REMARKS
GOODLAND KS    MOSUNNY   82  53  36 S10       29.92F
HILL CITY KS   SUNNY     88  61  40 E8        29.86F
IMPERIAL NEB   SUNNY     88  49  25 W3        29.90F
MCCOOK NEB     SUNNY     87  59  38 SE8       29.88F
AKRON CO       SUNNY     88  42  20 MISG      29.97F
BURLINGTON CO  PTSUNNY   81  46  29 SW16G24   29.97R
LIMON CO       MOSUNNY   84  38  19 SW17      30.04F
$$

...UNOFFICIAL OBSERVATIONS...

CITY           SKY/WX    TMP DP  RH WIND       PRES   REMARKS
COLBY KS       SUNNY     88  59  37 SE8       29.91R
GOVE KS          N/A     90  32  12 MISG        N/A
NORTON KS      SUNNY     82  55  39 E10       29.88R
SHARON SPRINGS   N/A     91  46  20 CALM        N/A
WAKEENEY KS      N/A     89  55  30 MISG        N/A
TRENTON NEB      N/A     87  32  14 E12         N/A
YUMA CO          N/A     88  46  22 E7          N/A
$$


USA.gov is the U.S. government's official web portal to all federal, state and local government web resources and services.